{"data":{"norad_id":52631,"epoch":"2026-09-20T03:24:15.593760Z","epoch_age_seconds":97431,"freshness":"FRESH","line1":"1 52631U 22052AK  26263.14184715  .00000126  00000+0  14881-4 0  9992","line2":"2 52631  53.1601 101.7020 0001149  98.3727 261.7406 15.34386270240558","mean_motion":15.3438627,"eccentricity":0.0001149,"inclination_deg":53.1601,"raan_deg":101.702,"arg_perigee_deg":98.3727,"mean_anomaly_deg":261.7406,"bstar":1.4881e-5,"rev_number":24055,"period_min":93.848597850136,"perigee_km":461.95803173235,"apogee_km":463.5300661974,"semimajor_km":6840.8810489649,"source":"CELESTRAK","updated_at":"2026-09-20T09:00:40.095874Z"}}